When you browse on this site, cookies collect data to enhance your experience and personalize the content and advertising you see.
Visit our Privacy Policy to learn more. By continuing to use the site, you agree to this use of cookies and data.
  • In Austria
  • List of Countries
  • For 7 days
  • Water Temperature
  • Satellite Maps
  • Weather Map
  • News
  • Weather Widgets
  • user-avatar
    Login

    Hourly Weather Gold Coast

    Today, 18 July, Thursday

    Time Temperature Precipitation Wind Pressure Humidity
    00:00 +10°C° 0 mm 3 mps 758 mmHg 83%
    01:00 +9°C° 0 mm 3 mps 758 mmHg 84%
    02:00 +9°C° 0 mm 3 mps 757 mmHg 83%
    03:00 +9°C° 0 mm 3 mps 757 mmHg 82%
    04:00 +8°C° 0 mm 2 mps 757 mmHg 80%
    05:00 +8°C° 0 mm 2 mps 757 mmHg 80%
    06:00 +8°C° 0 mm 2 mps 758 mmHg 79%
    07:00 +8°C° 0 mm 2 mps 758 mmHg 79%
    08:00 +12°C° 0 mm 2 mps 758 mmHg 65%
    09:00 +15°C° 0 mm 2 mps 758 mmHg 52%
    10:00 +20°C° 0 mm 1 mps 758 mmHg 37%
    11:00 +21°C° 0 mm 1 mps 758 mmHg 34%
    12:00 +22°C° 0 mm 1 mps 757 mmHg 30%
    13:00 +23°C° 0 mm 1 mps 757 mmHg 27%
    14:00 +21°C° 0 mm 2 mps 757 mmHg 31%
    15:00 +20°C° 0 mm 2 mps 757 mmHg 36%
    16:00 +19°C° 0 mm 2 mps 757 mmHg 42%
    17:00 +17°C° 0 mm 2 mps 757 mmHg 49%
    18:00 +15°C° 0 mm 2 mps 758 mmHg 55%
    19:00 +13°C° 0 mm 2 mps 759 mmHg 62%
    20:00 +12°C° 0 mm 2 mps 759 mmHg 64%
    21:00 +12°C° 0 mm 2 mps 759 mmHg 67%
    22:00 +10°C° 0 mm 2 mps 760 mmHg 70%
    23:00 +10°C° 0 mm 2 mps 760 mmHg 70%

    Tomorrow, 19 July, Friday

    Time Temperature Precipitation Wind Pressure Humidity
    00:00 +10°C° 0 mm 2 mps 760 mmHg 71%
    01:00 +10°C° 0 mm 2 mps 760 mmHg 72%
    02:00 +10°C° 0 mm 2 mps 760 mmHg 72%
    03:00 +10°C° 0 mm 2 mps 760 mmHg 72%
    04:00 +9°C° 0 mm 2 mps 760 mmHg 72%
    05:00 +9°C° 0 mm 2 mps 760 mmHg 72%
    06:00 +9°C° 0 mm 2 mps 761 mmHg 72%
    07:00 +9°C° 0 mm 2 mps 761 mmHg 72%
    08:00 +14°C° 0 mm 1 mps 761 mmHg 63%
    09:00 +18°C° 0 mm 1 mps 761 mmHg 55%
    10:00 +21°C° 0 mm 1 mps 761 mmHg 46%
    11:00 +22°C° 0 mm 1 mps 761 mmHg 44%
    12:00 +22°C° 0 mm 1 mps 760 mmHg 42%
    13:00 +23°C° 0 mm 1 mps 760 mmHg 39%
    14:00 +21°C° 0 mm 2 mps 760 mmHg 44%
    15:00 +20°C° 0 mm 2 mps 760 mmHg 48%
    16:00 +20°C° 0 mm 2 mps 760 mmHg 53%
    17:00 +17°C° 0 mm 2 mps 760 mmHg 64%
    18:00 +15°C° 0 mm 1 mps 761 mmHg 74%
    19:00 +13°C° 0 mm 1 mps 762 mmHg 85%
    20:00 +13°C° 0 mm 1 mps 762 mmHg 86%
    21:00 +12°C° 0 mm 1 mps 762 mmHg 88%
    22:00 +12°C° 0 mm 1 mps 763 mmHg 89%
    23:00 +12°C° 0 mm 1 mps 763 mmHg 88%

    Day after tomorrow, 20 July, Saturday

    Time Temperature Precipitation Wind Pressure Humidity
    00:00 +12°C° 0 mm 1 mps 763 mmHg 88%
    01:00 +12°C° 0 mm 2 mps 762 mmHg 87%
    02:00 +12°C° 0 mm 2 mps 762 mmHg 87%
    03:00 +10°C° 0 mm 2 mps 762 mmHg 88%
    04:00 +10°C° 0 mm 2 mps 762 mmHg 88%
    05:00 +10°C° 0 mm 2 mps 763 mmHg 88%
    06:00 +10°C° 0 mm 3 mps 763 mmHg 89%
    07:00 +10°C° 0 mm 3 mps 763 mmHg 90%
    08:00 +13°C° 0 mm 3 mps 764 mmHg 77%
    09:00 +17°C° 0 mm 3 mps 764 mmHg 64%
    10:00 +20°C° 0 mm 3 mps 764 mmHg 51%
    11:00 +20°C° 0 mm 3 mps 763 mmHg 49%
    12:00 +21°C° 0 mm 3 mps 763 mmHg 47%
    13:00 +21°C° 0 mm 3 mps 762 mmHg 45%
    14:00 +20°C° 0 mm 3 mps 762 mmHg 49%
    15:00 +20°C° 0 mm 2 mps 762 mmHg 53%
    16:00 +19°C° 0 mm 2 mps 761 mmHg 58%
    17:00 +17°C° 0 mm 2 mps 762 mmHg 67%
    18:00 +15°C° 0 mm 1 mps 762 mmHg 77%
    19:00 +13°C° 0 mm 1 mps 762 mmHg 86%
    20:00 +13°C° 0 mm 1 mps 763 mmHg 88%
    21:00 +12°C° 0 mm 1 mps 763 mmHg 89%
    22:00 +12°C° 0 mm 1 mps 763 mmHg 91%
    23:00 +12°C° 0 mm 1 mps 763 mmHg 91%

    21 July, Sunday

    Time Temperature Precipitation Wind Pressure Humidity
    00:00 +12°C° 0 mm 1 mps 762 mmHg 92%
    01:00 +12°C° 0 mm 1 mps 762 mmHg 92%
    02:00 +11°C° 0 mm 1 mps 762 mmHg 92%
    03:00 +11°C° 0 mm 1 mps 762 mmHg 92%
    04:00 +11°C° 0 mm 1 mps 762 mmHg 92%
    05:00 +10°C° 0 mm 2 mps 762 mmHg 92%
    06:00 +10°C° 0 mm 2 mps 762 mmHg 91%
    07:00 +10°C° 0 mm 2 mps 762 mmHg 91%
    08:00 +14°C° 0 mm 2 mps 762 mmHg 77%
    09:00 +17°C° 0 mm 2 mps 762 mmHg 63%
    10:00 +21°C° 0 mm 1 mps 762 mmHg 50%
    11:00 +20°C° 0 mm 2 mps 761 mmHg 48%
    12:00 +21°C° 0 mm 2 mps 760 mmHg 46%
    13:00 +21°C° 0 mm 3 mps 760 mmHg 44%
    14:00 +21°C° 0 mm 3 mps 759 mmHg 48%
    15:00 +20°C° 0 mm 3 mps 759 mmHg 51%
    16:00 +20°C° 0 mm 3 mps 759 mmHg 54%
    17:00 +18°C° 0 mm 3 mps 759 mmHg 63%
    18:00 +16°C° 0 mm 3 mps 760 mmHg 72%
    19:00 +13°C° 0 mm 2 mps 760 mmHg 82%
    20:00 +13°C° 0 mm 2 mps 760 mmHg 83%
    21:00 +13°C° 0 mm 2 mps 761 mmHg 84%
    22:00 +13°C° 0 mm 2 mps 761 mmHg 85%
    23:00 +13°C° 0 mm 2 mps 761 mmHg 85%

    22 July, Monday

    Time Temperature Precipitation Wind Pressure Humidity
    00:00 +12°C° 0 mm 2 mps 761 mmHg 86%
    01:00 +12°C° 0 mm 2 mps 760 mmHg 86%
    02:00 +12°C° 0 mm 2 mps 760 mmHg 87%
    03:00 +12°C° 0 mm 2 mps 760 mmHg 87%
    04:00 +12°C° 0 mm 2 mps 760 mmHg 88%
    05:00 +13°C° 0 mm 2 mps 760 mmHg 87%
    06:00 +13°C° 0 mm 2 mps 761 mmHg 85%
    07:00 +14°C° 0 mm 2 mps 761 mmHg 84%
    08:00 +16°C° 0 mm 2 mps 761 mmHg 75%
    09:00 +18°C° 0 mm 3 mps 761 mmHg 65%
    10:00 +20°C° 0 mm 3 mps 761 mmHg 56%
    11:00 +21°C° 0 mm 3 mps 761 mmHg 52%
    12:00 +22°C° 0 mm 3 mps 760 mmHg 47%
    13:00 +24°C° 0 mm 3 mps 759 mmHg 43%
    14:00 +24°C° 0 mm 3 mps 759 mmHg 46%
    15:00 +22°C° 0 mm 3 mps 759 mmHg 49%
    16:00 +22°C° 0 mm 3 mps 759 mmHg 52%
    17:00 +20°C° 0.1 mm 3 mps 760 mmHg 63%
    18:00 +17°C° 0.1 mm 3 mps 760 mmHg 73%
    19:00 +15°C° 0.1 mm 2 mps 760 mmHg 83%
    20:00 +15°C° 0 mm 2 mps 761 mmHg 85%
    21:00 +14°C° 0 mm 2 mps 761 mmHg 87%
    22:00 +14°C° 0 mm 2 mps 761 mmHg 89%
    23:00 +14°C° 0.1 mm 2 mps 761 mmHg 90%

    23 July, Tuesday

    Time Temperature Precipitation Wind Pressure Humidity
    00:00 +14°C° 0.1 mm 2 mps 761 mmHg 91%
    01:00 +13°C° 0.1 mm 2 mps 761 mmHg 91%
    02:00 +13°C° 0 mm 2 mps 760 mmHg 91%
    03:00 +13°C° 0 mm 2 mps 760 mmHg 91%
    04:00 +13°C° 0 mm 2 mps 760 mmHg 90%
    05:00 +13°C° 0 mm 2 mps 761 mmHg 90%
    06:00 +13°C° 0 mm 2 mps 761 mmHg 90%
    07:00 +13°C° 0 mm 1 mps 762 mmHg 90%
    08:00 +16°C° 0 mm 1 mps 762 mmHg 77%
    09:00 +20°C° 0 mm 1 mps 762 mmHg 64%
    10:00 +21°C° 0 mm 0 mps 762 mmHg 52%
    11:00 +24°C° 0 mm 1 mps 761 mmHg 47%
    12:00 +24°C° 0 mm 1 mps 761 mmHg 43%
    13:00 +25°C° 0 mm 1 mps 760 mmHg 38%
    14:00 +24°C° 0 mm 2 mps 760 mmHg 44%
    15:00 +23°C° 0 mm 2 mps 760 mmHg 49%
    16:00 +21°C° 0 mm 2 mps 759 mmHg 55%
    17:00 +19°C° 0 mm 2 mps 760 mmHg 64%
    18:00 +19°C° 0 mm 1 mps 760 mmHg 73%
    19:00 +16°C° 0 mm 1 mps 760 mmHg 82%
    20:00 +16°C° 0.1 mm 1 mps 761 mmHg 82%
    21:00 +16°C° 0.1 mm 1 mps 761 mmHg 82%
    22:00 +15°C° 0.1 mm 1 mps 761 mmHg 82%
    23:00 +15°C° 0 mm 2 mps 761 mmHg 84%
    Show more